Back to catalog

ARIANE 44L+3 R/B

AliveHEO
NORAD 23950·ROCKET BODY·🇫🇷 France

Launched Jul 9, 1996 from Guiana Space Centre

Loading…

Next Passes (next 24 hours)

TLE

FreshSource: Space-Track

Epoch: Sep 14, 2026, 08:23 UTC

1 23950U 96040C   26257.34932500  .00000667  00000-0  54635-3 0  9991
2 23950   6.7671 112.8981 6888469 327.9578   4.4944  2.74843861273738

Track ARIANE 44L+3 R/B in real time with AllMySat

Download on the App Store